This is the latest recevied weather packets stored in our database for station/object WC4PEM-7. If no packets are shown the sender has not sent any weather packets the latest 10 day(s).
| Time | Temp. | Humidity | Pressure | Rain* | Wind** | Luminosity | Snow |
|---|---|---|---|---|---|---|---|
| 1787772114 | 34.44° C | 60% | 1014.8 hPa | 0 mm | - | - | - |
| 1787771991 | 34.44° C | 60% | 1014.8 hPa | 0 mm | - | - | - |
| 1787771691 | 33.89° C | 61% | 1014.8 hPa | 0 mm | - | - | - |
| 1787771514 | 33.89° C | 60% | 1014.8 hPa | 0 mm | - | - | - |
| 1787771391 | 33.89° C | 60% | 1014.8 hPa | 0 mm | - | - | - |
| 1787771091 | 35° C | 58% | 1015 hPa | 0 mm | - | - | - |
| 1787770791 | 35° C | 54% | 1014.9 hPa | 0 mm | - | - | - |
| 1787770491 | 35° C | 54% | 1014.9 hPa | 0 mm | - | - | - |
| 1787770191 | 35° C | 54% | 1015.1 hPa | 0 mm | - | - | - |
| 1787769891 | 35° C | 55% | 1015.1 hPa | 0 mm | - | - | - |
| 1787769591 | 35° C | 57% | 1015.2 hPa | 0 mm | - | - | - |
| 1787769291 | 35° C | 55% | 1015.3 hPa | 0 mm | - | - | - |
| 1787768991 | 35° C | 56% | 1015.4 hPa | 0 mm | - | - | - |
| 1787768691 | 35° C | 57% | 1015.5 hPa | 0 mm | - | - | - |
| 1787768391 | 35° C | 59% | 1015.6 hPa | 0 mm | - | - | - |
| 1787768091 | 35° C | 56% | 1015.6 hPa | 0 mm | - | - | - |
| 1787767791 | 34.44° C | 58% | 1015.8 hPa | 0 mm | - | - | - |
| 1787767491 | 34.44° C | 58% | 1015.9 hPa | 0 mm | - | - | - |
| 1787767191 | 34.44° C | 57% | 1016 hPa | 0 mm | - | - | - |
| 1787767035 | 34.44° C | 58% | 1016.1 hPa | 0 mm | - | - | - |
| 1787766891 | 34.44° C | 58% | 1016.1 hPa | 0 mm | - | - | - |
| 1787766718 | 34.44° C | 59% | 1016.1 hPa | 0 mm | - | - | - |
| 1787766591 | 34.44° C | 59% | 1016.1 hPa | 0 mm | - | - | - |
| 1787766291 | 34.44° C | 58% | 1016.3 hPa | 0 mm | - | - | - |
| 1787765991 | 33.89° C | 60% | 1016.5 hPa | 0 mm | - | - | - |
* Rain latest hour (hover to see other rain measurements)
** Current wind speed in m/s (hover to see current wind gust speed)